Location: *
(44.1392°N, 4.8079°E)
Time: 20:38:18
(UTC+00:00)

ARGOS Delta rocket - Pass Details

Date: 21 June 2021
Orbit: 635 x 838 km, 96.5° (Epoch: 02 August)

Event Time Altitude Azimuth Distance (km) Brightness Sun altitude
Rises 01:30:07 0° 8° (N) 3,397 8.7 -18.1°
Reaches altitude 10° 01:32:31 10° 5° (N) 2,462 7.7 -17.9°
Maximum altitude 01:37:58 65° 285° (WNW) 914 4.3 -17.4°
Enters shadow 01:40:45 29° 212° (SSW) 1,479 4.9 -17.2°
